Weather History for Roswell, NM

Change the Weather History Date:

Wednesday, January 30, 2013

  Actual Average Record
Temperature  
Mean Temperature 39 °F 42 °F  
Max Temperature 53 °F 58 °F 90 °F (2014)
Min Temperature 25 °F 28 °F -11 °F (1949)
Degree Days  
Heating Degree Days 26 22  
Month to date heating degree days 736 734  
Since 1 July heating degree days 1893 2144  
Moisture  
Dew Point 9 °F    
Average Humidity 46    
Maximum Humidity 78    
Minimum Humidity 14    
Precipitation  
Precipitation 0.00 in 0.02 in 0.74 in (1964)
Month to date precipitation 0.41 0.37  
Year to date precipitation 0.41 0.37  
Sea Level Pressure  
Sea Level Pressure 30.07 in    
Wind  
Wind Speed 10 mph (WNW)    
Max Wind Speed 26 mph    
Max Gust Speed 32 mph    
Visibility 10 miles    
Events      
T = Trace of Precipitation, MM = Missing Value Source: NWS Daily Summary

Daily Weather History Graph

Daily Weather History Graph

Search for Another Location

Airport:

Trip Planner

Search our weather history database for the weather conditions in past years. The results will help you decide how hot, cold, wet, or windy it might be!

Date:

Astronomy

Jan. 30, 2013 Rise Set
Actual Time 6:55 AM MST 5:28 PM MST
Civil Twilight 6:28 AM MST 5:54 PM MST
Nautical Twilight 5:59 AM MST 6:24 PM MST
Astronomical Twilight 5:29 AM MST 6:53 PM MST
Moon 9:13 PM MST (1/30) 8:38 AM MST (1/30)
Length of Visible Light 11h 25m
Length of Day
10h 33m
Waning Gibbous, 87% of the Moon is Illuminated
Jan 30
Waning Gibbous
Feb 3
Last Quarter
Feb 10
New
Feb 17
First Quarter
Feb 25
Full

Hourly Weather History & Observations

Time (MST) Temp. Windchill Dew Point Humidity Pressure Visibility Wind Dir Wind Speed Gust Speed Precip Events Conditions
12:51 AM 28.0 °F 21.7 °F 23.0 °F 81% 29.99 in 10.0 mi NW 5.8 mph - N/A   Clear
1:51 AM 27.0 °F 15.6 °F 19.0 °F 72% 30.00 in 10.0 mi West 13.8 mph - N/A   Clear
2:51 AM 28.9 °F 18.6 °F 19.9 °F 69% 30.03 in 10.0 mi WNW 12.7 mph - N/A   Clear
3:51 AM 27.0 °F 16.7 °F 18.0 °F 69% 30.06 in 10.0 mi WNW 11.5 mph - N/A   Clear
4:51 AM 28.9 °F 18.6 °F 18.0 °F 64% 30.06 in 10.0 mi WNW 12.7 mph - N/A   Clear
5:51 AM 28.9 °F 18.6 °F 17.1 °F 61% 30.09 in 10.0 mi West 12.7 mph - N/A   Clear
6:51 AM 26.1 °F 18.4 °F 15.1 °F 63% 30.12 in 10.0 mi West 6.9 mph - N/A   Clear
7:51 AM 30.0 °F 23.2 °F 14.0 °F 51% 30.13 in 10.0 mi WNW 6.9 mph - N/A   Clear
8:51 AM 35.1 °F - 14.0 °F 42% 30.14 in 10.0 mi Calm Calm - N/A   Clear
9:51 AM 41.0 °F 31.4 °F 6.1 °F 24% 30.13 in 10.0 mi NW 21.9 mph 29.9 mph N/A   Clear
10:51 AM 44.1 °F 35.4 °F 3.0 °F 18% 30.12 in 10.0 mi NW 21.9 mph 31.1 mph N/A   Clear
11:51 AM 46.0 °F 38.3 °F 6.1 °F 20% 30.09 in 10.0 mi NNW 20.7 mph 29.9 mph N/A   Clear
12:25 PM 48.2 °F - 1.4 °F 15% 30.10 in 10.0 mi West 11.5 mph 23.0 mph N/A   Clear
12:51 PM 48.9 °F - 5.0 °F 17% 30.06 in 10.0 mi NW 13.8 mph 25.3 mph N/A   Clear
1:51 PM 51.1 °F - 3.9 °F 15% 30.04 in 10.0 mi WNW 11.5 mph 18.4 mph N/A   Clear
2:51 PM 53.1 °F - 6.1 °F 15% 30.01 in 10.0 mi NW 16.1 mph 27.6 mph N/A   Clear
3:08 PM 53.6 °F - 5.0 °F 14% 30.05 in 10.0 mi West 10.4 mph 23.0 mph N/A   Clear
3:51 PM 52.0 °F - 5.0 °F 15% 30.03 in 10.0 mi West 3.5 mph - N/A   Clear
4:51 PM 52.0 °F - 5.0 °F 15% 30.02 in 10.0 mi WNW 11.5 mph - N/A   Clear
5:51 PM 48.0 °F - 6.1 °F 18% 30.04 in 10.0 mi WNW 12.7 mph - N/A   Clear
6:51 PM 46.0 °F 41.4 °F 6.1 °F 20% 30.10 in 10.0 mi WNW 9.2 mph - N/A   Clear
7:51 PM 39.9 °F 35.8 °F 5.0 °F 23% 30.10 in 10.0 mi West 5.8 mph - N/A   Clear
8:51 PM 35.1 °F 29.3 °F 5.0 °F 28% 30.10 in 10.0 mi SW 6.9 mph - N/A   Clear
9:51 PM 30.9 °F 25.2 °F 5.0 °F 33% 30.11 in 10.0 mi WSW 5.8 mph - N/A   Clear
10:51 PM 28.0 °F 24.2 °F 5.0 °F 38% 30.11 in 10.0 mi SSW 3.5 mph - N/A   Clear
11:51 PM 32.0 °F - 6.1 °F 34% 30.09 in 10.0 mi Calm Calm - N/A   Clear